Weather History for Mt. Pocono, PA

Change the Weather History Date:

Wednesday, December 18, 2013

  Actual Average Record
Temperature  
Mean Temperature 20 °F 27 °F  
Max Temperature 27 °F 33 °F 56 °F (1984)
Min Temperature 12 °F 20 °F -21 °F (1919)
Degree Days  
Heating Degree Days 45 38  
Month to date heating degree days 703 638  
Since 1 July heating degree days 2315 2217  
Cooling Degree Days 0 0  
Month to date cooling degree days 0 0  
Year to date cooling degree days 467 314  
Moisture  
Dew Point 16 °F    
Average Humidity 80    
Maximum Humidity 92    
Minimum Humidity 68    
Precipitation  
Precipitation T in 0.12 in 1.22 in (1954)
Month to date precipitation 1.45 2.39  
Year to date precipitation 43.03 47.30  
Sea Level Pressure  
Sea Level Pressure 30.00 in    
Wind  
Wind Speed 12 mph (WNW)    
Max Wind Speed 21 mph    
Max Gust Speed 28 mph    
Visibility 8 miles    
Events Snow    
T = Trace of Precipitation, MM = Missing Value Source: NWS Daily Summary

Daily Weather History Graph

Daily Weather History Graph

Search for Another Location

Airport:

Trip Planner

Search our weather history database for the weather conditions in past years. The results will help you decide how hot, cold, wet, or windy it might be!

Date:

Astronomy

Dec. 18, 2013 Rise Set
Actual Time 7:21 AM EST 4:34 PM EST
Civil Twilight 6:50 AM EST 5:05 PM EST
Nautical Twilight 6:15 AM EST 5:40 PM EST
Astronomical Twilight 5:42 AM EST 6:14 PM EST
Moon 6:05 PM EST (12/18) 7:59 AM EST (12/18)
Length of Visible Light 10h 15m
Length of Day
9h 12m
Full, 98% of the Moon is Illuminated
Dec 18
Full
Dec 25
Last Quarter
Jan 1
New
Jan 7
First Quarter
Jan 15
Full

Hourly Weather History & Observations

Time (EST) Temp. Windchill Dew Point Humidity Pressure Visibility Wind Dir Wind Speed Gust Speed Precip Events Conditions
12:53 AM 18.0 °F 6.9 °F 14.0 °F 84% 29.95 in 9.0 mi WNW 9.2 mph - N/A   Overcast
1:53 AM 19.0 °F 10.0 °F 15.1 °F 85% 29.95 in 9.0 mi WNW 6.9 mph - N/A   Overcast
2:53 AM 19.0 °F 11.1 °F 15.1 °F 85% 29.97 in 9.0 mi West 5.8 mph - N/A   Overcast
3:53 AM 19.0 °F 9.0 °F 15.1 °F 85% 29.96 in 8.0 mi WNW 8.1 mph - N/A   Overcast
4:46 AM 19.0 °F 9.0 °F 16.0 °F 88% 29.88 in 8.0 mi West 8.1 mph - N/A   Mostly Cloudy
4:53 AM 18.0 °F 6.9 °F 15.1 °F 88% 29.97 in 6.0 mi West 9.2 mph - N/A   Mostly Cloudy
5:27 AM 19.0 °F 7.5 °F 16.0 °F 88% 29.88 in 6.0 mi WNW 10.4 mph - 0.00 in   Overcast
5:41 AM 19.0 °F 6.8 °F 16.0 °F 88% 29.88 in 6.0 mi WNW 11.5 mph - 0.00 in   Overcast
5:53 AM 19.9 °F 7.9 °F 17.1 °F 89% 29.97 in 6.0 mi WNW 11.5 mph - 0.00 in   Overcast
6:12 AM 19.0 °F 5.6 °F 16.0 °F 88% 29.88 in 6.0 mi WNW 13.8 mph - N/A   Mostly Cloudy
6:53 AM 19.0 °F 6.1 °F 15.1 °F 85% 29.99 in 6.0 mi WNW 12.7 mph - N/A   Mostly Cloudy
7:00 AM 19.0 °F 6.1 °F 15.1 °F 85% 29.89 in 6.0 mi WNW 12.7 mph - N/A   Scattered Clouds
7:53 AM 19.0 °F 5.0 °F 15.1 °F 85% 30.01 in 5.0 mi WNW 15.0 mph 20.7 mph 0.00 in Snow Light Snow
8:06 AM 19.9 °F 6.2 °F 16.0 °F 85% 29.92 in 6.0 mi WNW 15.0 mph - 0.00 in   Mostly Cloudy
8:53 AM 21.9 °F 7.8 °F 17.1 °F 82% 30.01 in 4.0 mi WNW 17.3 mph 25.3 mph 0.00 in   Haze
9:41 AM 23.0 °F 9.6 °F 19.0 °F 85% 29.94 in 5.0 mi WNW 16.1 mph - N/A   Overcast
9:48 AM 24.8 °F 11.1 °F 19.4 °F 80% 29.94 in 5.0 mi WNW 18.4 mph 25.3 mph N/A   Haze
9:53 AM 24.1 °F 10.6 °F 19.0 °F 81% 30.03 in 5.0 mi WNW 17.3 mph 25.3 mph N/A   Haze
10:04 AM 24.1 °F 10.1 °F 19.0 °F 81% 29.94 in 2.5 mi WNW 18.4 mph 24.2 mph 0.00 in Snow Light Snow
10:17 AM 25.0 °F 12.2 °F 19.0 °F 78% 29.95 in 4.0 mi WNW 16.1 mph - 0.00 in Snow Light Snow
10:30 AM 25.0 °F 12.6 °F 18.0 °F 75% 29.95 in 5.0 mi WNW 15.0 mph 24.2 mph 0.00 in   Haze
10:53 AM 25.0 °F 13.1 °F 18.0 °F 75% 30.04 in 9.0 mi WNW 13.8 mph 24.2 mph 0.00 in   Mostly Cloudy
11:22 AM 25.0 °F 13.1 °F 17.1 °F 72% 29.95 in 10.0 mi WNW 13.8 mph 23.0 mph N/A   Partly Cloudy
11:50 AM 26.6 °F 15.7 °F 17.6 °F 69% 29.95 in 10.0 mi West 12.7 mph 26.5 mph N/A   Mostly Cloudy
11:53 AM 27.0 °F 14.3 °F 17.1 °F 66% 30.04 in 9.0 mi WNW 17.3 mph 26.5 mph N/A   Mostly Cloudy
12:53 PM 25.0 °F 13.1 °F 17.1 °F 72% 30.04 in 10.0 mi West 13.8 mph 25.3 mph N/A   Mostly Cloudy
1:53 PM 25.0 °F 11.7 °F 17.1 °F 72% 30.05 in 4.0 mi West 17.3 mph 24.2 mph 0.00 in Snow Light Snow
2:53 PM 26.1 °F 15.0 °F 17.1 °F 69% 30.05 in 8.0 mi West 12.7 mph 20.7 mph 0.00 in   Overcast
3:00 PM 26.1 °F 14.5 °F 17.1 °F 69% 29.97 in 9.0 mi WNW 13.8 mph - N/A   Overcast
3:15 PM 26.1 °F 15.0 °F 17.1 °F 69% 29.97 in 10.0 mi WNW 12.7 mph - N/A   Overcast
3:53 PM 26.1 °F 15.6 °F 17.1 °F 69% 30.07 in 10.0 mi West 11.5 mph - N/A   Overcast
4:13 PM 26.1 °F 14.5 °F 17.1 °F 69% 29.99 in 10.0 mi West 13.8 mph 26.5 mph N/A   Overcast
4:53 PM 26.1 °F 16.2 °F 17.1 °F 69% 30.09 in 10.0 mi West 10.4 mph - N/A   Overcast
5:53 PM 25.0 °F 12.2 °F 16.0 °F 69% 30.10 in 10.0 mi West 16.1 mph - N/A   Mostly Cloudy
6:53 PM 24.1 °F 12.0 °F 15.1 °F 69% 30.12 in 10.0 mi West 13.8 mph - N/A   Clear
7:53 PM 21.9 °F 11.0 °F 15.1 °F 75% 30.14 in 10.0 mi West 10.4 mph - N/A   Clear
8:53 PM 21.9 °F 10.4 °F 15.1 °F 75% 30.13 in 10.0 mi West 11.5 mph - N/A   Clear
9:53 PM 21.0 °F 10.6 °F 14.0 °F 74% 30.13 in 10.0 mi West 9.2 mph - N/A   Clear
10:53 PM 21.0 °F 9.9 °F 14.0 °F 74% 30.13 in 10.0 mi West 10.4 mph - N/A   Partly Cloudy
11:06 PM 21.9 °F 12.5 °F 15.1 °F 75% 30.05 in 10.0 mi West 8.1 mph - N/A   Mostly Cloudy
11:53 PM 21.9 °F 13.4 °F 15.1 °F 75% 30.14 in 10.0 mi West 6.9 mph - N/A   Overcast